sat.trackr.live / text

‹ back to catalog

IRNSS-1C

NORAD 40269 · 2014-061A

PAYLOAD ACTIVE UNKNOWN

§ Identity

Operator
Country
IND
Launch date
2014-10-15
Launch site
SRILR
Launch vehicle
Mass (kg)
RCS (m²)
0.00

Purposes: comms, nav

External: N2YO · Heavens-Above · Gunter

§ Orbital elements

Epoch: 2026-09-20T00:12:32.176800Z

Period
1,436.12 min
Inclination
6.7537°
Eccentricity
0.0019863
Mean motion
1.00270039 rev/d
Perigee alt
35,703.3 km
Apogee alt
35,870.8 km
Semi-major
42,165.2 km
B*
0.0000e+0
RAAN
87.1033°
Arg perigee
10.2953°
Mean anomaly
347.6738°
Rev number
4,363

§ Raw data

IRNSS-1C1 40269U 14061A   26263.00870575 -.00000164  00000+0  00000+0 0  99942 40269   6.7537  87.1033 0019863  10.2953 347.6738  1.00270039 43636

JSON: /api/v1/satellites/40269 · /tle

For live sub-satellite position, see the globe view (requires WebGL).

§ Visibility from observer

Set your observer location to see the next 7 days of passes ≥ 10°. The values pass through the URL so the page stays shareable.

No JS? Fill the form by hand. The geolocation button needs JavaScript.